ASUSAT

Satellite information

Favourite Embed

Satellite Type and Status

PAYLOADIN ORBIT

Key statistics

Satellite ASUSAT at a glance.

Uptime

9452

Days in orbit

Revolutions

≈ 14.4

Per day

Orbit

SSO

Sun Synchronous Orbit

Inclination

100.2

Latest

Satellite identification and parameters

Extended collection of information and parameters for ASUSAT.

Object identification

Identified? True

Debris? False

Object name: ASUSAT

International designator: 2000-004E

Object number (NORAD): 26065

Object ID (CCSDS): 26065

Country: UNITED STATES OF AMERICA (US)

Current information (Y/N): Y

RCS size: MEDIUM

Orbital parameters

Period: 100.13 minutes

Inclination: 100.1917 deg

SMA: 7142.8 km

Apoapsis: 790.153 km

Periapsis: 739.177 km

RAAN: 247.294 deg

Eccentricy: 0.00356831

Argument of periapsis: 201.0048 deg

Mean anomaly: 158.9669 deg

Mean motion: 14.38136255 rev/day

Mean motion (dot): 0.00000342 rev/day2

B* drag term: 0.00013128667 1/REarth

Two-line elements (TLE)

Creation date: Dec. 12, 2025, 10:14 a.m.

Reference frame: TEME

Reference center: EARTH

Epoch: Dec. 12, 2025, 7:02 a.m. UTC

TLE line 0: 0 ASUSAT

TLE line 1: 1 26065U 00004E 25346.29337675 .00000342 00000-0 13129-3 0 9993

TLE line 2: 2 26065 100.1917 247.2940 0035683 201.0048 158.9669 14.38136255356699

Live tracking on map

Real-time ground track for satellite ASUSAT.

In-orbit conjunctions

A list of the most updated potential collisions computed for object ASUSAT.

Target Orbit TCA Probability of collision Miss distance Type
FENGYUN 1C DEB SSO 2025-10-17 00:49:47 0.0002237301 913.0 (m) DEBRIS
DMSP 5D-2 F13 DEB SSO 2025-08-11 20:31:51 0.0007717568 463.0 (m) DEBRIS
DMSP 5D-2 F13 DEB SSO 2025-05-20 22:46:12 0.0001500457 911.0 (m) DEBRIS
COSMOS 2251 DEB LEO 2025-01-25 01:48:48 0.000298617 642.0 (m) DEBRIS
FENGYUN 1C DEB SSO 2024-12-30 22:34:22 0.0001115617 704.0 (m) DEBRIS

Associated space launch

The JAWSAT (Joint Air Force Academy / Weber State University Satellite) project was developed by students working alongside aerospace professionals. Initially designed with a pulsed-plasma thruster to train Air Force Academy cadets (see JAWSAT), the mission has since evolved to include the efforts of several universities, local aerospace companies, the Air Force Academy, the Air Force Research Laboratory, and NASA. Utilizing breakthrough technologies, JAWSAT deployed four satellites when it reached orbit. The onboard imaging system recorded the deployment of each payload with its six digital cameras. The first free-flying Academy satellite, FalconSat-1 carried the CHAWS (Charging Hazards and Wake Studies) experiment developed by the Physics Department at the Academy.

ASUSAT was lifted into orbit during the mission ‘Minotaur I | JAWSAT & FalconSat 1’, on board a Minotaur I space rocket.

The launch took place on Jan. 27, 2000, 3:03 a.m. from Space Launch Complex 8.

For more information about the launch, click the button.

Launch to space Minotaur I | JAWSAT & FalconSat 1
Minotaur I | JAWSAT & FalconSat 1

Agency: N/A

Status: Launch Successful

Launch date: Jan. 27, 2000, 3:03 a.m. UTC

Rocket: Minotaur I

Launch pad: Space Launch Complex 8

Location: Vandenberg SFB, CA, USA

...

Latest news about this satellite

There are no fresh news available about this satellite. Check back as we update our databases every day.


Newsletter sign-up

Weekly statistics, charts and insights to help you stay on top of the space industry.